{"data":{"norad_id":60031,"epoch":"2026-09-21T12:23:56.532192Z","epoch_age_seconds":89755,"freshness":"FRESH","line1":"1 60031U 24111R   26264.51662653  .00001869  00000+0  66432-4 0  9991","line2":"2 60031  53.1601 190.6625 0001505  86.3798 273.7377 15.34404511129544","mean_motion":15.34404511,"eccentricity":0.0001505,"inclination_deg":53.1601,"raan_deg":190.6625,"arg_perigee_deg":86.3798,"mean_anomaly_deg":273.7377,"bstar":6.6432e-5,"rev_number":12954,"period_min":93.847482178055,"perigee_km":461.660288159,"apogee_km":463.71937703561,"semimajor_km":6840.8268325973,"source":"CELESTRAK","updated_at":"2026-09-22T09:00:49.140277Z"}}